Volver al catálogo

STARLINK-33780

ActivoComunicacionesVLEO
NORAD 63459·PAYLOAD·🇺🇸 United States

Lanzado Apr 4, 2025 desde Vandenberg Space Force Base

Loading…

Próximos Pases (próximas 24 horas)

TLE

ActualizadoSource: CelesTrak SupGP

Época: Sep 15, 2026, 02:15 UTC

1 63459C 25069AC  26258.09423611  .00065513  00000+0  19356-2 0  2581
2 63459  53.1586 335.1529 0001206  93.9520 117.9210 15.34357142    19

Sigue STARLINK-33780 en tiempo real con AllMySat

Download on the App Store